Regional Weather Roundup
Issued by NWS Charleston, SC

Current Version | Previous Version | Graphics & Text | Print | Product List | Glossary On
Versions: 1 2 3 4 5 6 7 8 9 10 11 12 13 14 15 16 17 18 19 20 21 22 23 24 25 26 27 28 29 30 31 32 33 34 35 36 37 38 39 40 41 42 43 44 45 46 47 48 49 50
000
ASUS42 KCHS 230027
RWRCHS

REGIONAL WEATHER ROUNDUP
NATIONAL WEATHER SERVICE CHARLESTON SC
800 PM EDT TUE AUG 22 2017

NOTE: "FAIR" INDICATES FEW OR NO CLOUDS BELOW 12,000 FEET WITH NO
SIGNIFICANT WEATHER AND/OR OBSTRUCTIONS TO VISIBILITY.

NOT ALL STATIONS ARE QUALITY CONTROLLED. USE DATA WITH CAUTION...
ESPECIALLY DEWPOINT OBSERVATIONS.

SCZ027-030-031-034>040-042>050-230100-
...SOUTHEAST SOUTH CAROLINA...

CITY           SKY/WX    TMP DP  RH WIND       PRES   REMARKS
N CHARLESTON   PTCLDY    81  74  79 SW8       29.99F
6HR MIN TEMP:  80; 6HR MAX TEMP:  90; 6HR PCP:  0.19;

WATERFRONT PRK   N/A     84  77  79 SW6       29.84F HX  94
JOHNS ISLAND   FAIR      82  75  78 SW7       30.00S
PINOPOLIS        N/A     84  77  79 VRB3      29.92S HX  94
MONCKS CORNER  FAIR      79  75  89 SW3       30.00R
SUMMERVILLE    FAIR      81  77  89 CALM      30.00S
BEAUFORT MCAS  CLOUDY    83  78  85 S7        29.99F HX  93
6HR MIN TEMP:  82; 6HR MAX TEMP:  91;

BEAUFORT ARPT  FAIR      81  75  83 SW5       29.99F HAZE
HILTON HEAD IS CLOUDY    82  77  83 VRB6G13   30.01F HX  91
WALTERBORO     CLEAR     81  75  83 S7        30.00S
ALLENDALE      NOT AVBL

...SOUTHERN MIDLANDS AND PEE DEE...

CITY           SKY/WX    TMP DP  RH WIND       PRES   REMARKS
GEORGETOWN     FAIR      77  75  94 S5        30.00F
KINGSTREE      FAIR      79  77  94 SE5       29.98F
ORANGEBURG     CLEAR     83  72  69 S5        29.98F
6HR MIN TEMP:  82; 6HR MAX TEMP:  90;

BARNWELL       FAIR      86  75  70 S6        29.98S HX  95
AIKEN          FAIR      81  72  74 SW6       30.02S
MANNING        FAIR      81  73  78 S8        29.99R
COLUMBIA       PTCLDY    88  71  57 S6        29.96R HX  94
6HR MIN TEMP:  88; 6HR MAX TEMP:  94;

SUMTER         CLEAR     85  73  66 S7        29.95S HX  92
6HR MIN TEMP:  85; 6HR MAX TEMP:  94;

FLORENCE       CLEAR     82  74  76 S8        29.98S
6HR MIN TEMP:  82; 6HR MAX TEMP:  91;

MYRTLE BEACH   CLEAR     84  75  74 S10       30.00S HX  92
N MYRTLE BEACH CLOUDY    83  75  77 SW14      29.99R HX  90
6HR MIN TEMP:  83; 6HR MAX TEMP:  86;


$$

GAZ063-065-086>088-099>101-113>116-118-119-134>141-150-230100-
...SOUTHEAST GEORGIA...

CITY           SKY/WX    TMP DP  RH WIND       PRES   REMARKS
SAVANNAH ARPT  CLOUDY    82  75  79 S8        30.01F
6HR MIN TEMP:  80; 6HR MAX TEMP:  88; 6HR PCP:  0.02;

HUNTER AAF     MOCLDY    82  76  81 S5        29.98S
6HR MIN TEMP:  80; 6HR MAX TEMP:  89; 6HR PCP: TRACE;

FORT STEWART   MOCLDY    80  74  82 S3        29.99S
6HR MIN TEMP:  80; 6HR MAX TEMP:  87;

STATESBORO     CLOUDY    83  71  66 S5        30.00S
SYLVANIA         N/A     82  78  86 CALM      30.01S HX  92
CLAXTON        FAIR      83  77  80 CALM      30.00S HX  92

...CSRA...CENTRAL AND FAR SOUTHEAST GEORGIA...

CITY           SKY/WX    TMP DP  RH WIND       PRES   REMARKS
THOMSON        MOCLDY    78  75  90 W3        30.04F
AUGUSTA-BUSH   PTCLDY    84  75  74 W3        29.97F HX  92
6HR MIN TEMP:  84; 6HR MAX TEMP:  94; 6HR PCP: TRACE;

AUGUSTA-DANIEL MOCLDY    85  71  63 VRB3      30.00S HX  90
SWAINSBORO     CLOUDY    84  73  70 CALM      30.01S HX  91
VIDALIA        LGT RAIN  81  77  89 CALM      30.00F
EASTMAN        FAIR      82  68  62 CALM      30.02F
HAZLEHURST     FAIR      82  70  65 CALM      29.99F
ALMA           PTCLDY    84  77  79 SE3       30.00S HX  94
6HR MIN TEMP:  82; 6HR MAX TEMP:  94; 6HR PCP:  0.06;

WAYCROSS       CLOUDY    80  75  84 SE5       30.00F
JESUP          FAIR      81  73  78 CALM      30.02S
BAXLEY         FAIR      81  79  94 CALM      30.00S
BRUNSWICK      CLOUDY    79  73  83 CALM      30.01F
SAINT SIMONS   CLOUDY    83  74  74 S6        30.01S
6HR MIN TEMP:  81; 6HR MAX TEMP:  89; 6HR PCP: TRACE;


$$

SCZ027-028-034-036>038-045-046-048>050-GAZ119-141-230100-
...LAKE AND SUPPLEMENTAL COASTAL OBSERVATIONS...

STATION/POSITION TIME  TEMP    WIND        PRES    WAVE   SWELL
                       AIR SEA DIR/SP/G            HT/PER HT/PER/DIR
                 (UTC) (F)     (DEG/KT/KT) (MB)    (FT/S) (FT/S/D)
WINYAH BAY       2345   83     210/  9     1016.0S
LAKE MURRAY      2320   86     300/  2/  7 1013.5S
ACE BASIN NERRS  2345   83        CALM     1016.0S
FORT PULASKI     0000   83 87  210/  6/  9 1016.4
SAPELO ISLAND    0000   82     180/  3     1016.0

$$

ANZ835-935-AMZ111-154-330-350-352-354-370-450-454-472-230100-
...C-MAN AND BUOY OBSERVATIONS...

STATION/POSITION TIME  TEMP    WIND        PRES    WAVE   SWELL
                       AIR SEA DIR/SP/G            HT/PER HT/PER/DIR
                 (UTC) (F)     (DEG/KT/KT) (MB)    (FT/S) (FT/S/D)
BUOY 41004       0010   83 85  210/ 14/ 16 1015.5
BUOY 41008       2350   84 86  200/ 10/ 10 1016.1S   4/ 9   3/120/ 9
FOLLY BEACH CMAN 0000   84     220/ 14/ 16 1016.4F
CAPERS NEARSHORE 0008   81 86  230/ 14/ 19 1015.4F
FRIPP NEARSHORE  0008   84     200/ 14/ 17 1015.1F


STATION/POSITION TIME  TEMP    WIND        PRES    WAVE   SWELL
                       AIR SEA DIR/SP/G            HT/PER HT/PER/DIR
                 (UTC) (F)     (DEG/KT/KT) (MB)    (FT/S) (FT/S/D)
5E ST. MARYS GA  0000      85                N/A     4/ 9   2/130/11
FRYING PAN BUOY  0010   83 85  210/ 12/ 14 1015.8
BUOY 41025       2350   84 86  210/ 17/ 19 1015.1S   4/ 9   3/140/ 9
CAPE LOOKOUT NC  0000   83     210/ 12/ 14 1015.1S
BUOY 41002       2350   82 85  150/  6/  8 1017.3S   4/ 9   5/100/ 9
BUOY 41010       0010   83 85   90/ 10/ 12 1016.2
ST AUGUSTINE FL  0000   83 84  130/  9/ 10 1016.7F


$$



USA.gov is the U.S. government's official web portal to all federal, state and local government web resources and services.